Torna al catalogo

STARLINK-30424

AttivoComunicazioniVLEO
NORAD 57857·PAYLOAD·🇺🇸 United States

Lanciato Sep 12, 2023 da Vandenberg Space Force Base

Loading…

Prossimi Passaggi (prossime 24 ore)

TLE

AggiornatoSource: CelesTrak SupGP

Epoca: Sep 15, 2026, 03:06 UTC

1 57857C 23141T   26258.12965278 -.00007490  00000+0 -24084-3 0  2586
2 57857  53.1565  97.3365 0001375  92.1954 304.9274 15.31707946    11

Traccia STARLINK-30424 in tempo reale con AllMySat

Download on the App Store